User: anonymous   Login
Location: Unspecified
(0.0000°N, 0.0000°E)
Time: 13:21:41
(UTC+02:00)
Language:

Cosmos 1315 Rocket - Orbit

View from above orbital plane
View from above orbital plane
View from above satellite
View from above satellite

Ground track
Ground track

The orbit data is extracted from the following two-line orbital elements,

1 12904U 81103B   15186.86338859  .00001512  00000-0  10633-3 0  9995
2 12904 081.1767 008.5721 0028027 246.9898 112.8368 15.04237266385692
Epoch (UTC): 05 July 2015 20:43:16
Eccentricity: 0.0028027
inclination: 81.1767°
perigee height: 534 km
apogee height: 573 km
right ascension of ascending node: 8.5721°
argument of perigee: 246.9898°
revolutions per day: 15.04237266
mean anomaly at epoch: 112.8368°
orbit number at epoch: 38569

The dashed part of the orbit path shows where the satellite is in the earth's shadow,  

DLR